Preview of NWS' New Version of Forecast
This preview is not operational and should not be used for support decisions.

Regional Weather Roundup (RWR)

Issued by National Weather Service (NWS)

                            
000
ASUS43 KLSX 152110
RWRMO 

WEATHER SUMMARY FOR MISSOURI
NATIONAL WEATHER SERVICE SPRINGFIELD MO
400 PM CDT MON OCT 15 2018

NOTE: "FAIR" INDICATES FEW OR NO CLOUDS BELOW 12,000 FEET WITH NO
       SIGNIFICANT WEATHER AND/OR OBSTRUCTIONS TO VISIBILITY.
       CURRENT SKY AND/OR WEATHER CONDITIONS ARE NOT AVAILABLE FOR
       CHILLICOTHE AND FARMINGTON.

MOZ001>031-035>038-043-044-053-054-152200-
...NORTHERN AND WESTERN MISSOURI...
  
CITY           SKY/WX    TMP DP  RH WIND       PRES   REMARKS
KANSAS CTY INT MOSUNNY   45  30  55 W6        30.38F                  
KANSAS C DTWN  SUNNY     46  30  53 W8        30.39S                  
LEE'S SUMMIT   SUNNY     45  31  58 W9        30.38S                  
ST JOSEPH      SUNNY     48  29  47 VRB5      30.37F                  
CHILLICOTHE      N/A     46  32  58 CALM      30.38F                  
KIRKSVILLE     MOSUNNY   44  32  62 W9        30.35S                  
     
$$
MOZ066>068-077>081-088>096-101>105-152200-
...SOUTHWEST MISSOURI...
  
CITY           SKY/WX    TMP DP  RH WIND       PRES   REMARKS
SPRINGFIELD    CLOUDY    45  32  60 N8        30.34F                  
JOPLIN         SUNNY     48  33  56 N10G20    30.37F                  
BRANSON        CLOUDY    41  36  81 N9        30.34S                  
               
$$
MOZ032>034-039>042-045>050-055>058-069>072-152200-
...CENTRAL MISSOURI...  
  
CITY           SKY/WX    TMP DP  RH WIND       PRES   REMARKS
COLUMBIA       SUNNY     49  31  49 VRB6      30.35R                  
JEFFERSON CITY SUNNY     49  30  48 VRB7      30.36R                  
ROLLA          CLOUDY    44  32  62 NW7       30.34R                  
SEDALIA        SUNNY     46  30  53 NW10      30.37S                  
WHITEMAN AFB   MOSUNNY   47  29  50 NW5       30.33S                  
OSAGE BEACH    MOSUNNY   47  33  58 VRB5      30.36S                  
               
$$
MOZ051-052-059>065-152200-
...EAST CENTRAL MISSOURI...
  
CITY           SKY/WX    TMP DP  RH WIND       PRES   REMARKS
ST LOUIS INTL  PTSUNNY   48  32  53 NW10      30.32S                  
SPIRIT OF STL  MOSUNNY   49  33  54 NW9       30.32R                  
ST CHARLES     CLOUDY    49  33  54 N12       30.32S                  
                   
$$
MOZ072>076-082>087-097>100-106>115-152200-
...SOUTH CENTRAL AND SOUTHEAST MISSOURI...
  
CITY           SKY/WX    TMP DP  RH WIND       PRES   REMARKS
CAPE GIRARDEAU PTSUNNY   46  37  71 N14       30.30R                  
FARMINGTON     PTSUNNY   43  35  73 NW8       30.33R                  
POPLAR BLUFF   CLOUDY    47  41  80 N13       30.30R                  
WEST PLAINS    CLOUDY    43  36  76 N9        30.32F                  
                                       
$$